Regional Weather Roundup
Issued by NWS Newport/Morehead, NC

Current Version | Previous Version | Graphics & Text | Print | Product List | Glossary Off
Versions: 1 2 3 4 5 6 7 8 9 10 11 12 13 14 15 16 17 18 19 20 21 22 23 24 25 26 27 28 29 30 31 32 33 34 35 36 37 38 39 40 41 42 43 44 45 46 47 48 49 50

000
ASUS42 KMHX 081424
RWRMHX
WEATHER ROUNDUP FOR EASTERN NORTH CAROLINA
NATIONAL WEATHER SERVICE NEWPORT/MOREHEAD CITY NC
900 AM EST THU DEC 08 2016

NOTE: "FAIR" INDICATES FEW OR NO CLOUDS BELOW 12,000 FEET
WITH NO SIGNIFICANT WEATHER AND/OR OBSTRUCTIONS TO VISIBILITY

NCZ015>017-031-032-045>047-102-103-081500-
NORTH COAST

CITY           SKY/WX    TMP DP  RH WIND       PRES   REMARKS
EDENTON        CLOUDY    52  47  83 CALM      30.06S
ELIZABETH CITY CLOUDY    50  45  83 SE5       30.03F
KITTY HAWK     CLOUDY    50  48  93 CALM      30.04S
MANTEO         CLOUDY    51  47  88 CALM      30.05F

$$

NCZ045>047-081-094-103-104-081500-
CENTRAL COAST

CITY           SKY/WX    TMP DP  RH WIND       PRES   REMARKS
FRISCO         NOT AVBL

$$

NCZ095-097-098-100-101-081500-
SOUTHERN COAST

CITY           SKY/WX    TMP DP  RH WIND       PRES   REMARKS
BEAUFORT       MOSUNNY   59  53  80 SW10      30.05S
CEDAR ISLAND   NOT AVBL
JACKSONVILLE   FOG       50  50 100 W7        30.06R VSB 1/4
PINEY ISLAND   CLOUDY   N/A N/A N/A CALM      30.05R
WILMINGTON     CLOUDY    50  50 100 W9        30.08R FOG


$$

NCZ011>013-027>030-043-044-078>080-089-090>093-098-081500-
COASTAL PLAIN

CITY           SKY/WX    TMP DP  RH WIND       PRES   REMARKS
AHOSKIE        CLOUDY    47  45  92 CALM      30.05R
CLINTON        PTSUNNY   52  51  96 W7        30.08R
ELIZABETHTOWN  SUNNY     52  50  92 W7        30.09R
GOLDSBORO      CLOUDY    53  53 100 SW8       30.05R
GREENVILLE     CLOUDY    52  48  87 SW8       30.07S
HAVELOCK       PTSUNNY   54  50  86 CALM      30.06R
KENANSVILLE    NOT AVBL
KINSTON        CLOUDY    54  50  87 SW7       30.07R FOG
NEW BERN       CLOUDY    53  48  83 CALM      30.07R
RICHLANDS      CLOUDY    50  50 100 SW5       30.08R FOG
ROCKY MOUNT    CLOUDY    50  48  93 SW5       30.05R
WASHINGTON     CLOUDY    51  48  89 SW5       30.06S
WHITEVILLE     CLOUDY    52  51  95 W5        30.09R FOG

$$

AMZ130-135-150-152-154-156-158-170-250-252-270-ANZ085-086-088-633-658-670-081500-
MARINE OBSERVATIONS

STATION/POSITION TIME  TEMP    WIND        PRES    WAVE   SWELL
                       AIR SEA DIR/SP/G            HT/PER HT/PER
                 (UTC) (F)     (DEG/KT/KT) (MB)    (FT/S) (FT/S)
CHESAPEAKE LIGHT NOT AVBL
64 E VA BEACH    1350   53 58  260/  4/  8 1017.6    4/ 8   3/ 8
DUCK             1400   51 54  190/  5/  6 1017.0
2 E DUCK         NOT AVBL
OREGON INLET     1400   52 55  180/  2/  3 1017.4
13E OREGON INLT  NOT AVBL
HATTERAS CG      1400   55 60  120/  2/  3 1017.2
DIAMOND BUOY     1350   59 78  280/  4/  6 1017.4    4/ 9   3/ 9
CAPE LOOKOUT     1400   59     260/ 13/ 15 1017.2
BEAUFORT LAB     1400   58 55  260/  5/ 10 1016.5
30 SE NEW RVR IN 1408   56 69  270/ 14/ 17 1018.0
30 SE NEW RVR IN NOT AVBL
27 SE WRIGHTSVLE 1408   59 67  250/ 14/ 19 1018.0
5 SE WRIGHTSVLE  1408   51 61  280/ 10/ 16 1018.5
225 S CAPE HAT   1350   72 74  250/  4/  6 1018.3    5/10   5/10
41 SE CHARLESTON 1350   66 74  270/ 12/ 16 1018.1    2/ 6   2/ 6

$$




USA.gov is the U.S. government's official web portal to all federal, state and local government web resources and services.